Buffalo, MN

8:58 PM CST on December 14, 2019 (GMT -0600)
Buffalo

Weather History for KCFE - October, 2019

Change the Weather History Date:

Wednesday, October 16, 2019

  Actual Average (WUND) Record (WUND)
Temperature  
Mean Temperature 40 °F -  
Max Temperature 42 °F - - (-1)
Min Temperature 39 °F - - (-1)
Degree Days  
Heating Degree Days 24    
Moisture  
Dew Point 35 °F    
Average Humidity 79    
Maximum Humidity 88    
Minimum Humidity 73    
Precipitation  
Precipitation 0.00 in - - ()
Sea Level Pressure  
Sea Level Pressure 30.11 in    
Wind  
Wind Speed - (North)    
Max Wind Speed -    
Max Gust Speed -    
Visibility 10 miles    
Events      
Averages and records for this station are not official NWS values.
T = Trace of Precipitation, MM = Missing Value Source: NWS Daily Summary

Daily Weather History Graph

Daily Weather History Graph

Search for Another Location

Airport or City:

Astronomy

Oct. 16, 2019 Rise Set
Actual Time 7:32 AM CDT 6:28 PM CDT
Civil Twilight 7:02 AM CDT 6:58 PM CDT
Nautical Twilight 6:28 AM CDT 7:32 PM CDT
Astronomical Twilight 5:54 AM CDT 8:06 PM CDT
Moon 8:16 PM CDT (10/16) 10:09 AM CDT (10/16)
Length of Visible Light 11h 55m
Length of Day
10h 56m
Waning Gibbous, 92% of the Moon is Illuminated
Oct 16
Waning Gibbous
Oct 21
Last Quarter
Oct 27
New
Nov 4
First Quarter
Nov 12
Full

Hourly Weather History & Observations

Time (CDT) Temp. Dew Point Humidity Pressure Visibility Wind Dir Wind Speed Gust Speed Precip Events Conditions
12:15 AM 42.4 °F 35.2 °F 76% 30.08 in 10.0 mi North - - N/A   Overcast
12:35 AM 42.4 °F 35.6 °F 77% 30.09 in 10.0 mi North - - N/A   Overcast
12:36 AM 42.4 °F 35.6 °F 77% 30.09 in 10.0 mi North - - N/A   Overcast
12:55 AM 42.6 °F 35.6 °F 76% 30.09 in 10.0 mi North - - N/A   Overcast
1:15 AM 42.8 °F 35.8 °F 76% 30.09 in 10.0 mi North - - N/A   Overcast
1:16 AM 42.8 °F 35.8 °F 76% 30.09 in 10.0 mi North - - N/A   Overcast
1:35 AM 42.8 °F 35.8 °F 76% 30.09 in 10.0 mi North - - N/A   Overcast
1:55 AM 42.6 °F 35.2 °F 75% 30.09 in 10.0 mi North - - N/A   Overcast
2:15 AM 42.1 °F 35.1 °F 76% 30.09 in 10.0 mi North - - N/A   Overcast
2:16 AM 42.1 °F 35.1 °F 76% 30.09 in 10.0 mi North - - N/A   Overcast
2:35 AM 41.9 °F 34.7 °F 76% 30.09 in 10.0 mi North - - N/A   Overcast
2:55 AM 42.1 °F 34.7 °F 75% 30.10 in 10.0 mi North - - N/A   Overcast
3:15 AM 42.1 °F 34.9 °F 76% 30.11 in 10.0 mi North - - N/A   Overcast
3:35 AM 41.9 °F 35.2 °F 77% 30.11 in 10.0 mi North - - N/A   Overcast
3:36 AM 41.9 °F 35.2 °F 77% 30.11 in 10.0 mi North - - N/A   Overcast
3:55 AM 41.9 °F 35.6 °F 78% 30.11 in 10.0 mi North - - N/A   Overcast
4:15 AM 41.5 °F 35.6 °F 79% 30.11 in 10.0 mi North - - N/A   Overcast
4:35 AM 41.2 °F 35.6 °F 81% 30.12 in 10.0 mi North - - N/A   Overcast
4:36 AM 41.2 °F 35.6 °F 81% 30.11 in 10.0 mi North - - N/A   Overcast
4:55 AM 41.0 °F 35.6 °F 81% 30.12 in 10.0 mi North - - N/A   Overcast
5:15 AM 41.0 °F 35.1 °F 79% 30.12 in 10.0 mi North - - N/A   Overcast
5:36 AM 41.0 °F 35.2 °F 80% 30.12 in 10.0 mi North - - N/A   Overcast
5:55 AM 41.0 °F 35.1 °F 79% 30.12 in 10.0 mi North - - N/A   Overcast
6:15 AM 41.0 °F 35.1 °F 79% 30.13 in 10.0 mi North - - N/A   Overcast
6:35 AM 40.5 °F 34.7 °F 80% 30.12 in 10.0 mi North - - N/A   Overcast
6:55 AM 40.3 °F 34.7 °F 80% 30.12 in 10.0 mi North - - N/A   Overcast
6:56 AM 40.3 °F 34.7 °F 80% 30.12 in 10.0 mi North - - N/A   Overcast
7:15 AM 40.1 °F 34.3 °F 80% 30.12 in 10.0 mi North - - N/A   Overcast
7:35 AM 40.1 °F 34.3 °F 80% 30.12 in 10.0 mi North - - N/A   Overcast
7:55 AM 40.1 °F 34.7 °F 81% 30.13 in 10.0 mi North - - N/A   Overcast
7:56 AM 40.1 °F 34.7 °F 81% 30.13 in 10.0 mi North - - N/A   Overcast
8:15 AM 40.1 °F 34.5 °F 80% 30.13 in 10.0 mi North - - N/A   Overcast
8:16 AM 40.1 °F 34.5 °F 80% 30.13 in 10.0 mi North - - N/A   Overcast
8:35 AM 40.1 °F 34.9 °F 82% 30.13 in 10.0 mi North - - N/A   Overcast
8:55 AM 40.1 °F 34.5 °F 80% 30.14 in 10.0 mi North - - N/A   Overcast
9:15 AM 40.5 °F 34.5 °F 79% 30.14 in 10.0 mi North - - N/A   Overcast
9:35 AM 40.5 °F 34.3 °F 79% 30.16 in 10.0 mi North - - N/A   Overcast
9:36 AM 40.5 °F 34.5 °F 79% 30.15 in 10.0 mi North - - N/A   Overcast
9:55 AM 41.0 °F 34.5 °F 78% 30.15 in 10.0 mi North - - N/A   Overcast
9:56 AM 41.0 °F 34.7 °F 78% 30.15 in 10.0 mi North - - N/A   Overcast
10:15 AM 41.0 °F 34.5 °F 78% 30.15 in 10.0 mi North - - N/A   Overcast
10:16 AM 41.0 °F 34.3 °F 77% 30.15 in 10.0 mi North - - N/A   Overcast
10:35 AM 41.2 °F 34.2 °F 76% 30.15 in 10.0 mi North - - N/A   Overcast
10:55 AM 41.5 °F 34.5 °F 76% 30.15 in 10.0 mi North - - N/A   Overcast
10:56 AM 41.5 °F 34.5 °F 76% 30.15 in 10.0 mi North - - N/A   Overcast
11:15 AM 42.1 °F 34.9 °F 76% 30.16 in 10.0 mi North - - N/A   Overcast
11:35 AM 42.4 °F 34.9 °F 75% 30.16 in 10.0 mi North - - N/A   Overcast
11:55 AM 41.9 °F 34.0 °F 73% 30.16 in 10.0 mi North - - N/A   Overcast
12:15 PM 41.9 °F 34.5 °F 75% 30.15 in 10.0 mi North - - N/A   Overcast
12:35 PM 41.7 °F 34.7 °F 76% 30.14 in 10.0 mi North - - N/A   Overcast
12:36 PM 41.7 °F 34.7 °F 76% 30.14 in 10.0 mi North - - N/A   Overcast
12:55 PM 41.9 °F 34.7 °F 76% 30.13 in 10.0 mi North - - N/A   Overcast
12:56 PM 41.9 °F 34.7 °F 76% 30.13 in 10.0 mi North - - N/A   Overcast
1:15 PM 41.9 °F 34.7 °F 76% 30.13 in 10.0 mi North - - N/A   Overcast
1:16 PM 41.9 °F 34.5 °F 75% 30.13 in 10.0 mi North - - N/A   Overcast
1:35 PM 42.3 °F 35.4 °F 77% 30.13 in 10.0 mi North - - N/A   Overcast
1:55 PM 42.3 °F 35.8 °F 78% 30.13 in 10.0 mi North - - N/A   Overcast
2:15 PM 42.3 °F 35.2 °F 76% 30.12 in 10.0 mi North - - N/A   Overcast
2:16 PM 42.3 °F 35.2 °F 76% 30.12 in 10.0 mi North - - N/A   Overcast
2:35 PM 42.1 °F 34.9 °F 76% 30.12 in 10.0 mi North - - N/A   Overcast
2:55 PM 42.1 °F 35.2 °F 77% 30.11 in 10.0 mi North - - N/A   Overcast
2:56 PM 42.1 °F 35.2 °F 77% 30.11 in 10.0 mi North - - N/A   Overcast
3:15 PM 42.3 °F 35.4 °F 77% 30.11 in 10.0 mi North - - N/A   Overcast
3:35 PM 42.1 °F 35.2 °F 77% 30.11 in 10.0 mi North - - N/A   Overcast
3:36 PM 42.1 °F 35.2 °F 77% 30.11 in 10.0 mi North - - N/A   Overcast
3:55 PM 42.1 °F 35.6 °F 78% 30.10 in 10.0 mi North - - N/A   Overcast
3:56 PM 42.1 °F 35.8 °F 78% 30.10 in 10.0 mi North - - N/A   Overcast
4:15 PM 41.9 °F 35.2 °F 77% 30.09 in 10.0 mi North - - N/A   Overcast
4:35 PM 42.1 °F 35.1 °F 76% 30.08 in 10.0 mi North - - N/A   Overcast
4:55 PM 41.9 °F 34.7 °F 76% 30.08 in 10.0 mi North - - N/A   Overcast
4:56 PM 41.9 °F 34.9 °F 76% 30.09 in 10.0 mi North - - N/A   Overcast
5:15 PM 42.3 °F 35.4 °F 77% 30.08 in 10.0 mi North - - N/A   Overcast
5:35 PM 42.1 °F 35.6 °F 78% 30.08 in 10.0 mi North - - N/A   Overcast
5:55 PM 41.9 °F 35.4 °F 78% 30.07 in 10.0 mi North - - N/A   Overcast
6:15 PM 41.7 °F 35.6 °F 79% 30.07 in 10.0 mi North - - N/A   Overcast
6:35 PM 41.5 °F 35.6 °F 79% 30.07 in 10.0 mi North - - N/A   Overcast
6:55 PM 41.4 °F 35.4 °F 79% 30.06 in 10.0 mi North - - N/A   Overcast
7:15 PM 41.4 °F 35.6 °F 80% 30.06 in 10.0 mi North - - N/A   Overcast
7:16 PM 41.4 °F 35.6 °F 80% 30.06 in 10.0 mi North - - N/A   Overcast
7:35 PM 41.4 °F 35.8 °F 81% 30.06 in 10.0 mi North - - N/A   Overcast
7:55 PM 41.4 °F 36.0 °F 81% 30.07 in 10.0 mi North - - N/A   Overcast
8:15 PM 41.4 °F 36.0 °F 81% 30.07 in 10.0 mi North - - N/A   Overcast
8:16 PM 41.4 °F 36.0 °F 81% 30.07 in 10.0 mi North - - N/A   Overcast
8:35 PM 41.4 °F 36.0 °F 81% 30.06 in 10.0 mi North - - N/A   Overcast
9:15 PM 41.2 °F 36.0 °F 82% 30.06 in 10.0 mi North - - N/A   Overcast
9:16 PM 41.2 °F 36.0 °F 82% 30.06 in 10.0 mi North - - N/A   Overcast
9:35 PM 41.0 °F 36.3 °F 83% 30.06 in 10.0 mi North - - N/A   Overcast
9:55 PM 41.0 °F 36.5 °F 84% 30.06 in 10.0 mi North - - N/A   Mostly Cloudy
10:15 PM 41.0 °F 36.5 °F 84% 30.06 in 10.0 mi North - - N/A   Overcast
10:35 PM 41.0 °F 36.5 °F 84% 30.07 in 10.0 mi North - - N/A   Overcast
10:55 PM 40.5 °F 36.9 °F 87% 30.07 in 10.0 mi North - - N/A   Scattered Clouds
10:56 PM 40.5 °F 36.9 °F 87% 30.07 in 10.0 mi North - - N/A   Scattered Clouds
11:15 PM 40.3 °F 36.0 °F 85% 30.07 in 10.0 mi North - - N/A   Clear
11:35 PM 39.6 °F 35.8 °F 86% 30.07 in 10.0 mi North - - N/A   Clear
11:36 PM 39.4 °F 35.6 °F 86% 30.07 in 10.0 mi North - - N/A   Clear
11:55 PM 39.2 °F 35.8 °F 88% 30.07 in 10.0 mi North - - N/A   Mostly Cloudy
11:56 PM 39.2 °F 35.8 °F 88% 30.07 in 10.0 mi North - - N/A   Mostly Cloudy